QPF
0.00 0.00 0.00 0.00 0.00 0.00 0.00 0.00 0.00 0.00 0.00 0.00 0.00 0.00 0.00 0.00 0.00 0.00 0.00 0.00 0.00 0.00 0.00 0.00 0.00 0.00 0.00 0.00 0.00 0.00 0.00 0.00
0.00 0.00 0.00 0.00 0.00 0.00 0.00 0.00 0.00 0.00 0.00 0.00 0.00 0.00 0.00 0.00 0.00 0.00 0.00 0.00 0.00 0.00 0.00 0.00 0.00 0.00 0.00 0.00 0.00 0.00 0.00 0.00
0.00 0.00 0.00 0.00 0.00 0.00 0.00 0.00 0.00 0.00 0.00 0.00 0.00 0.00 0.00 0.00 0.00 0.00 0.00 0.00 0.00 0.00 0.00 0.00 0.00 0.00 0.00 0.00 0.00 0.00 0.00 0.00
0.00 0.00 0.00 0.00 0.00 0.00 0.00 0.00 0.00 0.00 0.00 0.00 0.00 0.00 0.00 0.00 0.00 0.00 0.00 0.00 0.00 0.00 0.00 0.00 0.00 0.00 0.00 0.00 0.00 0.00 0.00 0.00
0.00 0.00 0.00 0.00 0.00 0.00 0.00 0.00 0.00 0.00 0.00 0.00 0.00 0.00 0.00 0.00 0.00 0.00 0.00 0.00 0.00 0.00 0.00 0.00 0.00 0.00 0.00 0.00 0.00 0.00 0.00 0.00
0.00 0.00 0.00 0.00 0.00 0.00 0.00 0.00 0.00 0.00 0.00 0.00 0.00 0.00 0.00 0.00 0.00 0.00 0.00 0.00 0.00 0.00 0.00 0.00 0.00 0.00 0.00 0.00 0.00 0.00 0.00 0.00
0.00 0.00 0.00 0.00 0.00 0.00 0.00 0.00 0.00 0.00 0.00 0.00 0.00 0.00 0.00 0.00 0.00 0.00 0.02 0.01 0.00 0.00 0.00 0.00 0.00 0.00 0.00 0.00 0.00 0.00 0.00 0.00
0.00 0.00 0.00 0.00 0.00 0.00 0.00 0.00 0.00 0.00 0.00 0.00 0.00 0.00 0.00 0.00 0.00 0.00 0.06 0.09 0.02 0.00 0.00 0.00 0.00 0.00 0.00 0.00 0.00 0.00 0.00 0.00
0.00 0.00 0.00 0.00 0.00 0.00 0.00 0.00 0.00 0.00 0.00 0.00 0.00 0.00 0.00 0.01 0.03 0.04 0.07 0.10 0.04 0.00 0.00 0.00 0.00 0.00 0.00 0.00 0.00 0.00 0.00 0.00
0.00 0.00 0.00 0.00 0.00 0.00 0.00 0.00 0.00 0.00 0.00 0.00 0.00 0.00 0.00 0.00 0.02 0.02 0.06 0.09 0.10 0.00 0.00 0.00 0.00 0.00 0.00 0.00 0.00 0.00 0.00 0.00
0.00 0.00 0.00 0.00 0.00 0.00 0.00 0.00 0.00 0.00 0.00 0.00 0.00 0.00 0.00 0.00 0.00 0.06 0.07 0.04 0.07 0.02 0.00 0.00 0.00 0.00 0.00 0.00 0.00 0.00 0.00 0.00
0.00 0.00 0.00 0.00 0.00 0.00 0.05 0.05 0.02 0.02 0.00 0.00 0.00 0.00 0.00 0.01 0.00 0.04 0.06 0.02 0.02 0.01 0.00 0.00 0.00 0.00 0.00 0.00 0.00 0.00 0.00 0.00
0.00 0.00 0.00 0.00 0.00 0.01 0.02 0.01 0.00 0.00 0.00 0.00 0.00 0.00 0.00 0.00 0.00 0.02 0.03 0.04 0.07 0.06 0.02 0.00 0.00 0.00 0.00 0.00 0.00 0.00 0.00 0.00
0.00 0.00 0.00 0.00 0.00 0.01 0.02 0.02 0.01 0.03 0.03 0.01 0.00 0.00 0.00 0.00 0.00 0.00 0.06 0.09 0.04 0.07 0.02 0.00 0.00 0.00 0.00 0.00 0.00 0.00 0.00 0.00
0.00 0.00 0.00 0.00 0.00 0.00 0.00 0.01 0.02 0.05 0.02 0.01 0.00 0.00 0.00 0.00 0.00 0.00 0.01 0.03 0.10 0.19 0.11 0.04 0.02 0.00 0.00 0.00 0.00 0.00 0.00 0.00
0.00 0.00 0.00 0.00 0.00 0.00 0.02 0.03 0.03 0.01 0.00 0.00 0.00 0.00 0.00 0.00 0.00 0.00 0.00 0.02 0.03 0.07 0.14 0.07 0.01 0.00 0.00 0.00 0.00 0.00 0.00 0.00
0.00 0.00 0.00 0.00 0.00 0.00 0.01 0.04 0.02 0.04 0.05 0.03 0.02 0.02 0.01 0.00 0.00 0.00 0.00 0.00 0.00 0.04 0.07 0.06 0.03 0.01 0.00 0.00 0.00 0.00 0.00 0.00
0.00 0.00 0.00 0.00 0.01 0.09 0.09 0.11 0.06 0.07 0.10 0.06 0.08 0.10 0.09 0.04 0.00 0.00 0.00 0.01 0.01 0.03 0.03 0.04 0.03 0.02 0.01 0.00 0.00 0.00 0.00 0.00
0.00 0.01 0.02 0.02 0.02 0.09 0.14 0.18 0.20 0.20 0.17 0.27 0.12 0.11 0.08 0.12 0.06 0.01 0.00 0.01 0.05 0.07 0.03 0.01 0.01 0.01 0.00 0.00 0.00 0.00 0.00 0.00
0.00 0.00 0.00 0.03 0.04 0.08 0.04 0.01 0.03 0.07 0.10 0.16 0.19 0.15 0.09 0.17 0.25 0.16 0.08 0.07 0.08 0.05 0.05 0.05 0.02 0.01 0.00 0.00 0.00 0.00 0.00 0.00
MSLP
1006.59 1006.97 1007.68 1008.16 1008.86 1009.37 1009.94 1010.47 1010.71 1011.21 1011.69 1012.01 1012.31 1012.91 1013.46 1014.02 1014.48 1014.95 1015.24 1015.69 1016.13 1016.60 1016.98 1017.60 1018.24 1018.55 1018.79 1019.09 1019.31 1019.52 1019.96 1020.28
1006.43 1006.78 1007.63 1008.19 1008.82 1009.50 1010.06 1010.51 1010.66 1011.24 1011.71 1012.09 1012.48 1013.03 1013.61 1014.05 1014.63 1015.10 1015.54 1015.95 1016.31 1016.72 1017.16 1017.62 1018.02 1018.67 1019.05 1019.52 1019.76 1019.95 1020.28 1020.59
1006.70 1006.74 1007.33 1008.18 1008.89 1009.51 1010.14 1010.65 1010.77 1011.21 1011.84 1012.21 1012.64 1013.22 1013.74 1014.21 1014.61 1015.25 1015.82 1016.21 1016.54 1016.94 1017.35 1017.64 1018.31 1018.58 1019.28 1019.83 1020.21 1020.61 1020.68 1020.94
1006.75 1006.94 1007.05 1007.61 1008.65 1009.31 1009.93 1010.56 1010.99 1011.27 1011.83 1012.43 1012.69 1013.20 1013.71 1014.19 1014.46 1015.20 1015.83 1016.41 1016.86 1017.19 1017.59 1017.93 1018.43 1019.09 1019.55 1019.94 1020.59 1021.01 1021.22 1021.41
1006.59 1006.75 1007.31 1007.45 1007.99 1008.82 1009.46 1010.04 1010.70 1011.23 1011.63 1012.14 1012.52 1013.07 1013.78 1014.44 1014.83 1015.35 1016.20 1016.69 1017.08 1017.45 1017.89 1018.34 1018.61 1019.17 1019.78 1020.24 1020.60 1021.12 1021.52 1021.67
1006.19 1006.69 1006.91 1007.30 1007.64 1008.25 1008.82 1009.49 1010.02 1010.68 1011.32 1011.86 1012.23 1012.80 1013.52 1014.24 1014.86 1015.37 1015.99 1016.57 1017.07 1017.61 1018.17 1018.68 1018.93 1019.21 1019.63 1020.31 1020.66 1021.01 1021.53 1021.78
1005.31 1006.08 1006.45 1006.79 1007.11 1007.64 1008.36 1008.90 1009.50 1009.88 1010.76 1011.42 1011.92 1012.37 1013.13 1013.78 1014.32 1014.67 1015.49 1016.29 1016.83 1017.52 1018.23 1018.79 1019.20 1019.42 1019.76 1020.16 1020.74 1021.15 1021.43 1021.75
1004.56 1005.12 1005.61 1006.16 1006.60 1006.81 1007.30 1008.17 1008.71 1009.39 1010.01 1010.55 1011.32 1011.83 1012.52 1013.47 1014.21 1014.73 1015.39 1016.06 1016.88 1017.26 1017.88 1018.71 1019.31 1019.50 1019.93 1020.20 1020.62 1021.13 1021.47 1021.81
1003.57 1004.01 1004.85 1005.34 1005.86 1006.29 1006.69 1007.07 1007.77 1008.73 1009.25 1009.99 1010.64 1011.41 1012.04 1013.04 1013.93 1014.66 1014.93 1015.76 1016.69 1017.50 1018.08 1018.71 1019.43 1019.61 1020.10 1020.39 1020.71 1021.10 1021.48 1021.83
1002.47 1002.86 1003.59 1004.18 1004.84 1005.60 1006.25 1006.61 1007.03 1007.77 1008.48 1009.29 1010.05 1010.79 1011.70 1012.48 1013.28 1014.01 1014.67 1015.58 1016.44 1017.30 1017.93 1018.68 1019.41 1019.68 1020.20 1020.60 1020.93 1021.30 1021.63 1021.93
1001.26 1001.75 1002.39 1003.07 1003.84 1004.43 1005.28 1006.02 1006.37 1007.05 1007.88 1008.64 1009.52 1010.25 1011.10 1011.89 1012.72 1013.71 1014.67 1015.44 1016.12 1016.78 1017.69 1018.23 1019.14 1019.87 1020.29 1020.73 1021.11 1021.37 1021.67 1021.95
999.74 1000.42 1001.16 1002.11 1002.82 1003.70 1004.76 1005.48 1006.14 1006.69 1007.29 1007.94 1008.63 1009.43 1010.49 1011.40 1012.37 1013.09 1014.00 1014.89 1015.87 1016.46 1017.18 1017.95 1018.60 1019.42 1020.22 1020.99 1021.36 1021.55 1021.67 1021.89
998.79 999.59 1000.17 1001.27 1002.06 1003.07 1004.10 1004.56 1005.37 1006.06 1006.47 1007.11 1007.79 1008.69 1009.79 1010.72 1011.86 1012.66 1013.47 1014.07 1014.99 1016.05 1017.08 1017.80 1018.66 1019.18 1020.33 1021.57 1021.98 1021.99 1022.00 1022.02
997.30 998.19 999.05 999.92 1000.79 1001.76 1002.80 1003.45 1004.20 1004.71 1005.62 1006.52 1006.97 1007.90 1008.76 1009.75 1010.70 1011.60 1012.60 1013.80 1014.61 1015.30 1015.95 1017.23 1018.11 1018.41 1019.20 1020.84 1022.18 1022.54 1022.21 1022.16
996.37 997.16 998.01 998.83 999.54 1000.70 1001.97 1003.15 1004.01 1004.73 1005.16 1005.72 1006.49 1007.03 1007.98 1008.95 1009.95 1010.90 1011.90 1012.71 1013.61 1014.47 1015.26 1015.81 1016.68 1017.84 1017.94 1018.52 1020.89 1021.10 1021.78 1022.13
995.38 996.14 997.12 997.82 998.71 999.61 1000.63 1001.42 1002.39 1003.22 1003.92 1004.68 1005.51 1006.26 1007.14 1008.15 1009.25 1010.24 1011.15 1011.99 1012.75 1013.31 1014.53 1015.12 1015.78 1016.38 1017.37 1017.12 1017.76 1018.61 1020.34 1021.86
994.96 996.02 996.28 996.91 997.78 998.60 999.52 1000.63 1001.46 1002.43 1002.98 1003.79 1004.79 1005.51 1006.59 1007.40 1008.24 1009.31 1010.23 1010.97 1011.88 1012.65 1013.51 1014.30 1014.88 1015.33 1015.36 1016.33 1017.36 1018.06 1018.45 1019.63
994.70 995.61 996.30 997.15 997.68 998.27 998.92 999.67 1000.82 1001.77 1002.42 1003.03 1003.85 1004.68 1005.54 1006.54 1007.32 1008.32 1009.29 1009.98 1010.69 1011.52 1012.31 1013.16 1014.01 1014.65 1015.10 1015.21 1015.47 1016.19 1017.26 1017.91
995.33 995.41 996.38 996.77 997.62 998.30 998.89 999.52 1000.12 1000.92 1001.64 1002.33 1003.42 1004.01 1004.60 1005.43 1006.30 1007.22 1008.04 1008.73 1009.72 1010.82 1011.40 1011.73 1012.43 1013.23 1013.59 1014.02 1014.65 1014.89 1015.57 1016.35
996.48 996.96 997.41 997.37 997.62 998.16 998.85 999.24 999.42 1000.06 1000.80 1001.43 1002.08 1003.02 1003.89 1004.94 1005.47 1006.25 1007.03 1007.71 1008.60 1009.63 1010.39 1010.87 1011.19 1011.94 1012.42 1013.05 1013.45 1014.09 1014.86 1015.46
Thickness
5751 5746 5741 5738 5733 5732 5730 5730 5732 5732 5731 5732 5733 5730 5726 5723 5720 5717 5716 5714 5713 5710 5708 5704 5698 5696 5694 5692 5691 5691 5689 5686
5746 5743 5736 5734 5730 5727 5726 5727 5730 5728 5727 5728 5728 5726 5723 5721 5716 5714 5712 5710 5709 5708 5706 5704 5700 5694 5693 5689 5687 5687 5686 5685
5738 5739 5735 5730 5726 5724 5722 5721 5724 5724 5722 5723 5724 5722 5720 5717 5714 5711 5707 5705 5705 5705 5704 5703 5697 5694 5690 5687 5684 5683 5683 5682
5734 5733 5732 5730 5724 5721 5719 5717 5718 5720 5720 5718 5721 5719 5717 5714 5712 5708 5705 5702 5700 5700 5699 5699 5696 5690 5687 5685 5681 5680 5679 5678
5729 5729 5727 5727 5726 5721 5718 5717 5716 5716 5717 5717 5718 5716 5713 5709 5706 5703 5698 5697 5696 5695 5694 5694 5694 5689 5684 5683 5680 5678 5676 5675
5728 5723 5725 5724 5723 5722 5719 5718 5717 5716 5715 5715 5715 5714 5710 5706 5702 5699 5697 5695 5693 5690 5688 5688 5689 5688 5683 5679 5679 5677 5675 5673
5729 5723 5722 5723 5721 5720 5718 5718 5717 5717 5713 5712 5712 5713 5709 5704 5701 5702 5696 5692 5691 5688 5684 5682 5683 5683 5680 5676 5675 5674 5673 5671
5727 5725 5723 5721 5718 5721 5721 5719 5718 5715 5713 5714 5712 5711 5707 5702 5698 5695 5690 5689 5685 5685 5683 5679 5678 5678 5676 5673 5672 5670 5669 5668
5723 5727 5722 5720 5717 5717 5718 5720 5718 5716 5715 5712 5711 5708 5705 5697 5693 5690 5690 5685 5680 5678 5677 5674 5674 5673 5672 5669 5667 5665 5665 5664
5725 5727 5724 5721 5718 5715 5714 5715 5718 5716 5715 5712 5709 5707 5700 5696 5693 5689 5686 5681 5677 5674 5674 5670 5669 5669 5666 5665 5662 5660 5659 5660
5725 5727 5725 5722 5718 5717 5713 5712 5714 5714 5712 5710 5707 5704 5699 5695 5692 5684 5680 5676 5675 5673 5671 5670 5665 5663 5661 5660 5658 5656 5655 5655
5731 5728 5726 5721 5719 5714 5707 5705 5705 5706 5709 5710 5709 5703 5698 5694 5689 5685 5679 5675 5672 5671 5670 5667 5663 5662 5658 5652 5651 5652 5652 5652
5730 5724 5726 5719 5715 5707 5701 5702 5702 5703 5708 5710 5707 5703 5697 5693 5687 5683 5678 5677 5674 5668 5663 5661 5656 5657 5651 5642 5641 5644 5646 5647
5732 5727 5726 5722 5718 5713 5708 5707 5705 5708 5708 5705 5706 5703 5700 5695 5691 5686 5680 5673 5670 5668 5667 5659 5654 5657 5655 5641 5633 5636 5641 5642
5731 5728 5727 5723 5721 5714 5706 5699 5694 5689 5694 5700 5701 5703 5699 5696 5691 5686 5680 5676 5672 5668 5665 5665 5660 5654 5658 5654 5633 5643 5636 5636
5732 5728 5723 5721 5718 5713 5707 5704 5699 5699 5699 5703 5703 5703 5700 5696 5689 5684 5679 5675 5672 5672 5664 5662 5659 5657 5652 5661 5660 5656 5645 5637
5726 5719 5719 5720 5717 5714 5709 5703 5703 5700 5700 5700 5698 5699 5695 5693 5690 5684 5679 5676 5672 5669 5665 5662 5659 5659 5665 5660 5652 5651 5652 5646
5715 5714 5710 5708 5708 5707 5707 5704 5698 5696 5695 5693 5692 5691 5690 5688 5687 5683 5678 5676 5673 5670 5667 5663 5659 5656 5656 5661 5663 5661 5654 5652
5702 5709 5700 5702 5701 5700 5701 5699 5697 5695 5690 5688 5683 5683 5686 5685 5686 5683 5680 5679 5674 5666 5665 5666 5665 5660 5661 5662 5660 5664 5660 5659
5685 5684 5686 5689 5691 5693 5693 5695 5696 5694 5690 5686 5684 5681 5681 5679 5681 5680 5679 5678 5671 5666 5662 5662 5665 5662 5661 5659 5661 5659 5655 5655